DODGE 1

导读

DODGE 1(闪避卫星)是美国于1967年7月1日发射的技术试验卫星,由约翰·霍普金斯大学应用物理实验室研发,主要任务是验证近地球同步轨道上的双轴、三轴重力梯度稳定技术,还承担地球磁场测量与地球表面摄影任务。发射12天后成功实现姿态稳定,验证了相关技术可行性,在轨运行超3年,拍摄数千张地球照片,1971年初因电池故障关闭,为后续同步轨道卫星技术积累了关键经验。

Basic Information
目录编号:
2867
目录名称:
DODGE 1
国际标识:
1967-066F
轨道中心:
EARTH
卫星名称:
DODGE 1
卫星全名:
--
卫星状态:
在轨 (已飞行21563 天)
发射日期:
1967-07-01 UTC
国别 :
美国 (US)
星等 :
--
Orbit Information
数据来源 国际轨道数据 AOE轨道数据
星历时间 2026-07-14T04:20:07+0800
11小时前
查看轨道信息
2026-07-09T14:00:00+0800
5天前
查看轨道信息
半长轴 39841.884km 39841.836km
偏心率 0.0052291 0.0052348
轨道倾角 2.555° 2.545°
近地点辐角 194.583° 194.381°
升交点赤经 96.905° 97.029°
平近点角 311.106° 304.369°
近地点 33255.409km 33255.134km
远地点 33672.085km 33672.264km
周期 1319.075分钟 1319.073分钟
每日圈数 1.091674 1.091676
Detailed Information
使用方式:
暂无
2D Orbit Map
3D Orbit Map
Orbit Altitude Analysis Chart
Orbit Inclination Analysis Chart
Orbit Comprehensive Analysis Chart
View Comprehensive Chart